Погода в Скривери

Латвия     56°38′44″N   25°07′22″E
темп.,
°C
ветер,
м/с
пор.,
м/с
влажн.,
%
обл.,
%
осадки,
мм/ч
давл.,
гПа
погр.,
м
16 сентября, чт
чт1600:00+6всв22900 0.0 102029
03:00+4вюв24915 0.0 102186
06:00+3в37947 0.0 1021145
09:00+6вюв3675100 0.0 1021257
12:00+11вюв4560100 0.0 1020666
15:00+14вюв3454100 0.0 1018929
18:00+12вюв376099 0.0 1017680
21:00+10в41066100 0.0 1017406
17 сентября, пт
пт1700:00+9в41168100 0.0 1016416
03:00+9в41170100 0.1 1016400
06:00+8в51268100 0.0 1015449
09:00+8в5136798 0.0 1015533
12:00+13в695257 0.0 1016863
15:00+14в5750100 0.0 10161262
18:00+12в5954100 0.0 10171048
21:00+9всв51263100 0.0 1018679
18 сентября, сб
сб1800:00+8всв51366100 0.0 1019620
03:00+6всв41270100 0.0 1020495
06:00+5всв41370100 0.0 1020511
09:00+7всв5146446 0.0 1020656
12:00+11в6114785 0.0 10201087
15:00+13всв694289 0.0 10201394
18:00+11всв510515 0.0 10201144
21:00+8всв513610 0.0 1021737
19 сентября, вс
вс1900:00+7св413700 0.0 1021560
03:00+5св413790 0.0 1021480
06:00+4св413830 0.0 1021488
09:00+6св514710 0.0 1021581
12:00+11всв610501 0.0 10211046
15:00+13всв68445 0.0 10211472
18:00+12всв49535 0.0 10211478
21:00+7св410705 0.0 1023427
20 сентября, пн
пн2000:00+6св4127160 0.0 1023634
03:00+4св411784 0.0 1024493
06:00+4св41279100 0.0 1024553
09:00+5св4117170 0.0 1025665
12:00+10всв595125 0.0 10241083
15:00+12св684234 0.0 10241474
18:00+10св495164 0.0 10241320
21:00+7св4106159 0.0 1025637